Weather reports worldwide

Advertisment
Noervenich/Flugplatz, Germany (10502): temperature & dewpoint: 01.08.2020 02:00:00 - 07.08.2020 02:00:00 (CEST)Noervenich/Flugplatz, Germany (10502): wind speed: 01.08.2020 02:00:00 - 07.08.2020 02:00:00 (CEST)Noervenich/Flugplatz, Germany (10502): wind direction: 01.08.2020 02:00:00 - 07.08.2020 02:00:00 (CEST)Noervenich/Flugplatz, Germany (10502): reduced air pressure: 01.08.2020 02:00:00 - 07.08.2020 02:00:00 (CEST)Noervenich/Flugplatz, Germany (10502): visibility: 01.08.2020 02:00:00 - 07.08.2020 02:00:00 (CEST)
Date & Time tt [°C] td [°C] ff [km/h] ff [kn] dd ppp [hPa] vv [km]
07.08.2020 02:00:00 19,0 10,8 7 4 SE 1019,9 30
07.08.2020 01:00:00 20,8 10,2 4 2 SE 1019,7 30
07.08.2020 00:00:00 20,7 10,0 7 4 SSE 1019,6 30
06.08.2020 23:00:00 22,2 10,0 4 2 SSE 1019,4 30
06.08.2020 22:00:00 23,7 9,8 4 2 SE 1019,0 30
06.08.2020 21:00:00 27,7 9,8 4 2 ENE 1018,4 35
06.08.2020 20:00:00 30,4 7,5 11 6 E 1018,0 40
06.08.2020 19:00:00 30,9 7,0 11 6 E 1017,8 40
06.08.2020 18:00:00 31,2 6,6 14 8 ENE 1017,9 40
06.08.2020 17:00:00 31,2 7,2 11 6 ENE 1018,0 40
06.08.2020 16:00:00 30,7 6,6 11 6 E 1017,9 40
06.08.2020 15:00:00 30,6 6,2 14 8 E 1018,5 40
06.08.2020 14:00:00 30,1 7,5 7 4 SE 1018,9 40
06.08.2020 13:00:00 28,9 7,5 11 6 ESE 1019,2 40
06.08.2020 12:00:00 28,1 8,1 14 8 SSE 1019,5 40
06.08.2020 11:00:00 27,1 8,2 11 6 SE 1019,4 40
06.08.2020 10:00:00 24,5 9,1 11 6 ESE 1019,7 40
06.08.2020 09:00:00 22,0 9,1 11 6 ESE 1019,5 40
06.08.2020 08:00:00 19,2 8,2 7 4 SE 1019,2 35
06.08.2020 07:00:00 17,7 7,5 4 2 N 1018,9 30
06.08.2020 06:00:00 17,3 7,1 7 4 SSE 1018,4 30
06.08.2020 05:00:00 17,7 7,4 7 4 SSE 1018,1 30
06.08.2020 04:00:00 17,0 8,1 7 4 ESE 1017,9 30
06.08.2020 03:00:00 16,9 8,7 7 4 N 1017,5 30
06.08.2020 02:00:00 19,0 8,0 7 4 S 1017,3 30
06.08.2020 01:00:00 20,3 7,9 7 4 SSE 1017,1 30
06.08.2020 00:00:00 22,6 7,5 7 4 S 1016,9 35
05.08.2020 23:00:00 22,0 8,7 7 4 SSE 1016,3 35
05.08.2020 22:00:00 22,5 9,4 11 6 SSW 1016,0 35
05.08.2020 21:00:00 26,2 8,1 7 4 N 1015,2 35
05.08.2020 20:00:00 29,5 5,8 7 4 N 1014,7 35
05.08.2020 19:00:00 29,4 4,7 7 4 N 1014,6 40
05.08.2020 18:00:00 29,8 4,7 7 4 SSE 1014,7 40
05.08.2020 17:00:00 29,3 4,3 7 4 ENE 1014,7 40
05.08.2020 16:00:00 28,8 3,9 7 4 ENE 1015,1 40
05.08.2020 15:00:00 27,8 4,7 7 4 NE 1015,5 40
05.08.2020 14:00:00 26,9 5,6 11 6 SE 1016,2 40
05.08.2020 13:00:00 26,3 5,3 7 4 N 1016,6 40
05.08.2020 12:00:00 25,2 5,7 11 6 SW 1016,9 40
05.08.2020 11:00:00 24,3 6,0 7 4 SW 1017,2 40
05.08.2020 10:00:00 22,3 7,2 7 4 S 1017,6 40
05.08.2020 09:00:00 19,4 7,8 7 4 SSE 1017,7 35
05.08.2020 08:00:00 15,8 7,5 7 4 SSE 1017,5 35
05.08.2020 07:00:00 13,1 7,5 11 6 SSE 1017,5 30
05.08.2020 06:00:00 12,5 7,3 7 4 S 1017,3 30
05.08.2020 05:00:00 13,0 7,4 7 4 S 1017,2 30
05.08.2020 04:00:00 13,4 7,4 7 4 S 1017,2 30
05.08.2020 03:00:00 14,3 7,3 7 4 S 1017,3 30
05.08.2020 02:00:00 14,2 7,6 7 4 S 1017,3 30
05.08.2020 01:00:00 14,4 7,6 7 4 S 1017,5 30
05.08.2020 00:00:00 15,5 7,6 7 4 S 1017,4 30
04.08.2020 23:00:00 14,3 8,0 0 0 N 1017,7 30
04.08.2020 22:00:00 15,9 7,6 4 2 N 1017,4 30
04.08.2020 21:00:00 19,3 7,3 4 2 NNW 1016,8 30
04.08.2020 20:00:00 22,0 5,5 7 4 NW 1016,5 30
04.08.2020 19:00:00 22,7 5,7 14 8 NNW 1016,5 30
04.08.2020 18:00:00 22,7 5,7 14 8 NW 1016,5 30
04.08.2020 17:00:00 22,3 5,6 14 8 NW 1016,7 30
04.08.2020 16:00:00 22,2 5,5 18 10 W 1016,9 30
04.08.2020 15:00:00 21,7 6,3 11 6 NW 1017,0 30
04.08.2020 14:00:00 21,0 7,6 14 8 NW 1017,1 25
04.08.2020 13:00:00 20,0 8,7 14 8 NW 1017,2 25
04.08.2020 12:00:00 18,3 9,9 14 8 NW 1017,4 20
04.08.2020 11:00:00 17,9 10,5 11 6 NNW 1017,3 10
04.08.2020 10:00:00 16,4 12,2 11 6 NW 1017,6 10
04.08.2020 09:00:00 15,2 12,1 7 4 NW 1017,3 10
04.08.2020 08:00:00 13,9 12,1 11 6 WNW 1016,7 12
04.08.2020 07:00:00 14,0 12,0 11 6 W 1016,2 15
04.08.2020 06:00:00 13,9 12,1 11 6 WNW 1015,9 15
04.08.2020 05:00:00 13,7 12,0 7 4 W 1015,4 20
04.08.2020 04:00:00 13,4 12,0 7 4 W 1015,3 20
04.08.2020 03:00:00 13,9 11,9 14 8 W 1015,2 20
04.08.2020 02:00:00 14,1 12,0 14 8 W 1015,4 8
04.08.2020 01:00:00 15,1 13,4 7 4 W 1015,2 8
04.08.2020 00:00:00 16,6 11,3 14 8 NNW 1014,0 15
03.08.2020 23:00:00 18,1 10,4 18 10 N 1013,3 25
03.08.2020 22:00:00 18,8 10,7 14 8 NNW 1012,8 25
03.08.2020 21:00:00 20,7 7,9 7 4 NW 1011,5 25
03.08.2020 20:00:00 20,5 8,9 7 4 SSW 1011,5 25
03.08.2020 19:00:00 21,2 8,4 14 8 SSW 1011,1 25
03.08.2020 18:00:00 21,6 6,3 14 8 WSW 1011,4 25
03.08.2020 17:00:00 22,2 4,5 18 10 W 1011,5 25
03.08.2020 16:00:00 22,0 5,2 11 6 W 1011,8 25
03.08.2020 15:00:00 23,0 6,0 11 6 WNW 1012,0 25
03.08.2020 14:00:00 22,0 6,4 7 4 NNW 1012,5 25
03.08.2020 13:00:00 21,1 6,3 11 6 NNW 1012,8 30
03.08.2020 12:00:00 20,4 8,1 7 4 NNW 1013,5 30
03.08.2020 11:00:00 19,2 8,6 7 4 NNW 1014,0 30
03.08.2020 10:00:00 18,0 9,9 4 2 NW 1014,1 30
03.08.2020 09:00:00 15,4 10,4 4 2 NNW 1014,5 30
03.08.2020 08:00:00 13,6 10,2 7 4 W 1014,7 30
03.08.2020 07:00:00 13,1 9,8 7 4 W 1014,7 40
03.08.2020 06:00:00 12,4 9,6 11 6 W 1014,8 40
03.08.2020 05:00:00 12,7 9,7 7 4 W 1014,8 40
03.08.2020 04:00:00 13,8 9,9 11 6 W 1014,8 40
03.08.2020 03:00:00 14,4 10,0 11 6 W 1015,1 40
03.08.2020 02:00:00 16,0 9,8 7 4 WNW 1015,4 40
03.08.2020 01:00:00 16,9 10,1 11 6 NW 1015,4 40
03.08.2020 00:00:00 18,3 9,9 11 6 NW 1015,4 40
02.08.2020 23:00:00 19,6 11,4 7 4 NW 1015,4 40
02.08.2020 22:00:00 19,5 12,9 7 4 NNW 1015,4 40
02.08.2020 21:00:00 20,2 12,7 7 4 NNW 1015,0 40
02.08.2020 20:00:00 20,8 12,7 18 10 NW 1014,8 40
02.08.2020 19:00:00 21,8 11,2 14 8 NW 1014,5 40
02.08.2020 18:00:00 22,3 11,6 22 12 NW 1014,4 40
02.08.2020 17:00:00 24,3 11,4 18 10 WNW 1014,1 40
02.08.2020 16:00:00 23,3 12,0 14 8 WNW 1014,4 40
02.08.2020 15:00:00 22,4 12,9 22 12 W 1015,1 40
02.08.2020 14:00:00 22,7 12,7 22 12 WNW 1015,1 40
02.08.2020 13:00:00 23,0 11,9 22 12 W 1015,0 40
02.08.2020 12:00:00 22,1 11,3 22 12 WNW 1015,1 40
02.08.2020 11:00:00 20,8 11,7 18 10 W 1015,1 40
02.08.2020 10:00:00 19,7 11,8 14 8 W 1015,4 25
02.08.2020 09:00:00 18,7 12,3 14 8 W 1015,2 25
02.08.2020 08:00:00 18,9 12,9 7 4 WNW 1014,8 20
02.08.2020 07:00:00 18,9 12,8 7 4 W 1014,7 20
02.08.2020 06:00:00 19,3 12,7 11 6 W 1014,7 15
02.08.2020 05:00:00 19,5 13,0 7 4 W 1014,8 20
02.08.2020 04:00:00 19,9 12,6 7 4 WNW 1015,0 20
02.08.2020 03:00:00 20,7 12,6 11 6 WNW 1015,1 20
02.08.2020 02:00:00 20,7 12,9 11 6 WNW 1015,1 20
02.08.2020 01:00:00 21,0 13,0 7 4 WNW 1015,2 15
02.08.2020 00:00:00 21,4 17,3 11 6 NNW 1015,2 15
01.08.2020 23:00:00 23,0 16,5 11 6 NNW 1014,8 15
01.08.2020 22:00:00 23,9 17,2 14 8 NNW 1014,4 15
01.08.2020 21:00:00 25,9 17,0 18 10 NW 1014,0 20
01.08.2020 20:00:00 27,3 16,6 18 10 NW 1013,4 20
01.08.2020 19:00:00 28,2 16,0 18 10 NNW 1013,2 20
01.08.2020 18:00:00 29,6 15,3 18 10 NW 1013,3 20
01.08.2020 17:00:00 30,8 15,2 18 10 WNW 1013,1 20
01.08.2020 16:00:00 30,8 14,2 14 8 NNW 1013,3 20
01.08.2020 15:00:00 29,8 15,4 11 6 N 1013,7 20
01.08.2020 14:00:00 27,6 15,2 7 4 W 1014,2 20
01.08.2020 13:00:00 24,7 17,9 4 2 NNE 1014,9 20
01.08.2020 12:00:00 23,0 18,3 4 2 NE 1015,2 20
01.08.2020 11:00:00 21,2 18,5 4 2 N 1014,7 20
01.08.2020 10:00:00 22,0 17,2 7 4 SSE 1015,0 20
01.08.2020 09:00:00 22,5 16,6 11 6 SSE 1014,1 20
01.08.2020 08:00:00 22,7 15,0 7 4 N 1013,3 20
01.08.2020 07:00:00 21,2 12,7 4 2 N 1013,5 20
01.08.2020 06:00:00 21,1 12,0 0 0 N 1013,0 20
01.08.2020 05:00:00 21,3 11,5 7 4 SSE 1012,8 20
01.08.2020 04:00:00 23,9 10,0 7 4 S 1012,8 20
01.08.2020 03:00:00 23,7 10,0 7 4 SSE 1012,3 20
01.08.2020 02:00:00 24,4 9,7 7 4 SE 1012,7 20

tt = temperature
td = dewpoint
ff = wind speed
dd = wind direction
ppp = reduced air pressure
vv = visibility

Next stations